< < Back
Terminal Aerodrome Forecast


Current Version              Previous Versions:   1  2  3  4  5  6  7  8  9  

Terminal Aerodrome Forecast

612
FTUS42 KFFC 290500
TAFCSG
TAF
KCSG 290525Z 2906/3006 34005KT P6SM SKC
     FM291600 35009G18KT P6SM SCT050
     FM300000 35006KT P6SM SKC=

Latest METAR

315
SAUS70 KWBC 290700
MTRCSG
METAR KCSG 290651Z AUTO 35004KT 10SM CLR 23/17 A2995 RMK AO2 SLP137
T02330167


USA.gov is the U.S. government's official web portal to all federal, state and local government web resources and services.